Flag for Liechtenstein Weather past 2 weeks in Vaduz, Liechtenstein

Now
62 °F

Cool.


Feels Like: 62 °F
Forecast: 50 / 72 °F
Wind: 2 mph from North

Location: Vaduz

Current Time: Oct 1, 2014 at 3:15:13 PM

Latest Report: Oct 1, 2014 at 2:00 PM


Visibility: N/A

Pressure: 30.31 "Hg

Humidity: 88%

Dew point: 59 °F

Location of VaduzLocation

Historic Weather in Vaduz — Graph

°F

Vaduz temperature yesterday

Maximum temperature yesterday: 64 °F (at 2:00 PM)
Minimum temperature yesterday: 58 °F (at 10:00 PM)
Average temperature yesterday: 60 °F

Past Weeks' High & Low Weather Summary

 TemperatureHumidityPressure
High78 °F (Sep 18, 2:00 PM)99% (Sep 28, 8:00 AM)30.38 "Hg (Sep 28, 8:00 AM)
Low44 °F (Sep 24, 3:00 AM)33% (Sep 18, 2:00 PM)29.80 "Hg (Sep 17, 4:00 PM)
Average60 °F74%30.12 "Hg
* Reported Sep 16 1:00 PM — Oct 1 1:00 PM, Vaduz, Weather by CustomWeather, © 2014

Note: Actual official high and low records may vary slightly from our data, if they occured in-between our weather recording intervals... More about our weather records

Advertising

Vaduz weather history for previous 24 hours

 ConditionsComfort  
Time TempWeatherWind HumidityBarometerVisibility
1:00 PM
Oct 1
61 °FCool.6 mph94%30.32 "HgN/A
12:00 PM64 °FMild.2 mph82%30.30 "HgN/A
11:00 AM61 °FOvercast.No wind88%30.31 "Hg2 mi
10:00 AM59 °FCool.No wind95%30.31 "HgN/A
9:00 AM58 °FCool.No wind97%30.31 "HgN/A
8:00 AM57 °FDrizzle. Overcast.No wind97%30.31 "Hg1 mi
7:00 AM57 °FCool.No wind97%30.30 "HgN/A
6:00 AM56 °FCool.No wind98%30.31 "HgN/A
5:00 AM56 °FFog.No wind97%30.31 "Hg3 mi
4:00 AM56 °FCool.No wind99%30.31 "HgN/A
3:00 AM56 °FCool.No wind98%30.32 "HgN/A
2:00 AM56 °FRain. Low clouds.No wind98%30.32 "Hg3 mi
1:00 AM56 °FCool.No wind98%30.32 "HgN/A
12:00 AM56 °FCool.No wind98%30.33 "HgN/A
11:00 PM
Sep 30
58 °FCool.No wind97%30.33 "HgN/A
10:00 PM58 °FCool.No wind97%30.33 "HgN/A
9:00 PM59 °FCool.2 mph94%30.33 "HgN/A
8:00 PM59 °FRain. Low clouds.2 mph95%30.32 "Hg3 mi
7:00 PM59 °FCool.1 mph94%30.32 "HgN/A
6:00 PM59 °FCool.No wind94%30.32 "HgN/A
5:00 PM60 °FDrizzle. Overcast.No wind91%30.32 "Hg3 mi
4:00 PM61 °FCool.2 mph80%30.31 "HgN/A
3:00 PM63 °FMild.3 mph70%30.30 "HgN/A
Weather by CustomWeather, © 2014

See weather overviewHow to use our weather pages